timestamp,wind_dir_avg,wind_spd_avg,wind_spd_max_dir,wind_spd_gust,battery_voltage,lat,long
2024-01-06 00:04:00+00:00,339.0,13.85,341.0,16.53,11.93,47.59359,-54.27349
2024-01-06 00:14:00+00:00,340.0,13.78,336.0,17.05,11.93,47.59359,-54.27349
2024-01-06 00:24:00+00:00,332.0,11.55,335.0,13.55,11.93,47.59359,-54.27349
2024-01-06 00:34:00+00:00,334.0,11.04,334.0,13.04,11.93,47.59359,-54.27349
2024-01-06 00:44:00+00:00,337.0,12.79,341.0,14.93,11.93,47.59359,-54.27349
2024-01-06 00:54:00+00:00,335.0,11.8,331.0,15.36,11.93,47.59359,-54.27349
2024-01-06 01:04:00+00:00,334.0,11.74,329.0,14.06,11.93,47.59359,-54.27349
2024-01-06 01:14:00+00:00,337.0,12.14,341.0,13.4,11.93,47.59359,-54.27349
2024-01-06 01:24:00+00:00,334.0,11.28,325.0,13.11,11.93,47.59359,-54.27349
2024-01-06 01:34:00+00:00,336.0,12.71,335.0,15.03,11.93,47.59359,-54.27349
2024-01-06 01:44:00+00:00,334.0,11.75,328.0,14.02,11.93,47.59359,-54.27349
2024-01-06 01:54:00+00:00,339.0,14.19,339.0,16.63,11.93,47.59359,-54.27349
2024-01-06 02:04:00+00:00,338.0,14.38,339.0,16.91,11.93,47.59359,-54.27349
2024-01-06 02:14:00+00:00,333.0,14.24,322.0,19.41,11.93,47.59359,-54.27349
2024-01-06 02:24:00+00:00,334.0,14.43,342.0,16.73,11.93,47.59359,-54.27349
2024-01-06 02:34:00+00:00,333.0,12.82,330.0,16.46,11.93,47.59359,-54.27349
2024-01-06 02:44:00+00:00,327.0,14.73,320.0,20.5,11.93,47.59359,-54.27349
2024-01-06 02:54:00+00:00,330.0,12.43,317.0,16.78,11.93,47.59359,-54.27349
2024-01-06 03:04:00+00:00,329.0,12.42,321.0,15.17,11.93,47.59359,-54.27349
2024-01-06 03:14:01+00:00,321.0,14.97,317.0,20.48,11.93,47.59359,-54.27349
2024-01-06 03:24:01+00:00,321.0,13.86,319.0,18.31,11.93,47.59359,-54.27349
2024-01-06 03:34:01+00:00,326.0,12.88,321.0,16.21,11.93,47.59359,-54.27349
2024-01-06 03:44:01+00:00,319.0,14.56,312.0,18.52,11.93,47.59359,-54.27349
2024-01-06 03:54:01+00:00,321.0,14.73,316.0,19.04,11.93,47.59359,-54.27349
2024-01-06 04:04:01+00:00,327.0,13.26,319.0,16.5,11.93,47.59359,-54.27349
2024-01-06 04:14:00+00:00,327.0,13.62,334.0,16.7,11.93,47.59359,-54.27349
2024-01-06 04:24:00+00:00,323.0,16.97,319.0,21.78,11.93,47.59359,-54.27349
2024-01-06 04:34:00+00:00,318.0,19.38,321.0,22.48,11.93,47.59359,-54.27349
2024-01-06 04:44:00+00:00,321.0,15.3,314.0,19.39,11.93,47.59359,-54.27349
2024-01-06 04:54:00+00:00,329.0,16.3,318.0,20.35,11.93,47.59359,-54.27349
2024-01-06 05:04:00+00:00,327.0,15.92,317.0,19.34,11.93,47.59359,-54.27349
2024-01-06 05:14:00+00:00,323.0,15.55,316.0,19.21,11.93,47.59359,-54.27349
2024-01-06 05:24:00+00:00,325.0,14.36,313.0,18.38,11.93,47.59359,-54.27349
2024-01-06 05:34:00+00:00,328.0,14.47,317.0,19.38,11.93,47.59359,-54.27349
2024-01-06 05:44:00+00:00,333.0,16.94,327.0,19.98,11.93,47.59359,-54.27349
2024-01-06 05:54:00+00:00,338.0,15.14,329.0,18.98,11.93,47.59359,-54.27349
2024-01-06 06:04:00+00:00,337.0,13.33,339.0,18.14,11.93,47.59359,-54.27349
2024-01-06 06:14:00+00:00,339.0,15.23,340.0,18.64,11.93,47.59359,-54.27349
2024-01-06 06:24:00+00:00,333.0,13.82,322.0,17.24,11.93,47.59359,-54.27349
2024-01-06 06:34:00+00:00,339.0,15.05,343.0,18.93,11.93,47.59359,-54.27349
2024-01-06 06:44:00+00:00,335.0,15.05,322.0,19.75,11.93,47.59359,-54.27349
2024-01-06 06:54:00+00:00,331.0,16.22,319.0,20.42,11.93,47.59359,-54.27349
2024-01-06 07:04:00+00:00,333.0,15.88,316.0,20.75,11.93,47.59359,-54.27349
2024-01-06 07:14:00+00:00,338.0,14.02,338.0,16.93,11.93,47.59359,-54.27349
2024-01-06 07:24:00+00:00,339.0,14.01,332.0,17.21,11.93,47.59359,-54.27349
2024-01-06 07:34:00+00:00,336.0,12.75,343.0,15.72,11.93,47.59359,-54.27349
2024-01-06 07:44:00+00:00,332.0,12.29,341.0,15.93,11.93,47.59359,-54.27349
2024-01-06 07:54:00+00:00,333.0,11.97,338.0,15.53,11.93,47.59359,-54.27349
2024-01-06 08:04:00+00:00,336.0,13.64,339.0,16.31,11.93,47.59359,-54.27349
2024-01-06 08:14:00+00:00,338.0,13.61,342.0,17.38,11.93,47.59359,-54.27349
2024-01-06 08:24:00+00:00,335.0,13.77,336.0,16.44,11.93,47.59359,-54.27349
2024-01-06 08:34:00+00:00,338.0,14.5,340.0,17.41,11.93,47.59359,-54.27349
2024-01-06 08:44:00+00:00,334.0,11.98,336.0,13.73,11.93,47.59359,-54.27349
2024-01-06 08:54:00+00:00,334.0,11.7,335.0,14.21,11.93,47.59359,-54.27349
2024-01-06 09:04:00+00:00,333.0,10.79,338.0,13.17,11.93,47.59359,-54.27349
2024-01-06 09:14:00+00:00,332.0,10.23,332.0,12.13,11.93,47.59359,-54.27349
2024-01-06 09:24:00+00:00,331.0,10.55,333.0,13.91,11.93,47.59359,-54.27349
2024-01-06 09:34:00+00:00,329.0,12.16,326.0,14.04,11.93,47.59359,-54.27349
2024-01-06 09:44:00+00:00,335.0,11.58,339.0,14.21,11.93,47.59359,-54.27349
2024-01-06 09:54:00+00:00,330.0,10.07,329.0,11.66,11.93,47.59359,-54.27349
2024-01-06 10:04:00+00:00,335.0,9.75,339.0,13.94,11.93,47.59359,-54.27349
2024-01-06 10:14:00+00:00,324.0,10.88,320.0,11.97,11.93,47.59359,-54.27349
2024-01-06 10:24:00+00:00,325.0,11.73,331.0,14.43,11.93,47.59359,-54.27349
2024-01-06 10:34:00+00:00,328.0,11.01,330.0,12.51,11.93,47.59359,-54.27349
2024-01-06 10:44:00+00:00,326.0,11.7,326.0,13.7,11.93,47.59359,-54.27349
2024-01-06 10:54:00+00:00,332.0,11.16,327.0,13.48,11.93,47.59359,-54.27349
2024-01-06 11:04:00+00:00,329.0,11.59,333.0,13.89,11.93,47.59359,-54.27349
2024-01-06 11:14:00+00:00,329.0,13.06,332.0,15.31,11.93,47.59359,-54.27349
2024-01-06 11:24:00+00:00,324.0,11.63,326.0,13.94,11.93,47.59359,-54.27349
2024-01-06 11:34:00+00:00,332.0,12.29,333.0,14.75,11.93,47.59359,-54.27349
2024-01-06 11:44:00+00:00,332.0,11.54,333.0,14.66,11.93,47.59359,-54.27349
2024-01-06 11:54:00+00:00,328.0,13.14,332.0,15.99,11.93,47.59359,-54.27349
2024-01-06 12:04:00+00:00,328.0,12.17,331.0,15.25,11.93,47.59359,-54.27349
2024-01-06 12:14:00+00:00,331.0,14.43,339.0,19.8,11.93,47.59359,-54.27349
2024-01-06 12:24:00+00:00,334.0,12.25,339.0,13.95,11.93,47.59359,-54.27349
2024-01-06 12:34:00+00:00,333.0,15.84,331.0,18.29,11.93,47.59359,-54.27349
2024-01-06 12:44:00+00:00,331.0,14.78,336.0,17.64,11.93,47.59359,-54.27349
2024-01-06 12:54:00+00:00,327.0,14.23,330.0,16.53,11.93,47.59359,-54.27349
2024-01-06 13:04:00+00:00,330.0,12.43,326.0,16.1,11.93,47.59359,-54.27349
2024-01-06 13:14:00+00:00,329.0,13.59,328.0,16.16,13.76,47.59359,-54.27349
2024-01-06 13:24:00+00:00,322.0,12.06,323.0,13.86,13.76,47.59359,-54.27349
2024-01-06 13:34:00+00:00,326.0,12.2,319.0,14.53,13.76,47.59359,-54.27349
2024-01-06 13:44:00+00:00,310.0,13.78,312.0,19.59,13.76,47.59359,-54.27349
2024-01-06 13:54:00+00:00,323.0,14.35,319.0,17.56,13.76,47.59359,-54.27349
2024-01-06 14:04:00+00:00,325.0,13.1,323.0,15.72,13.76,47.59359,-54.27349
2024-01-06 14:14:00+00:00,324.0,14.58,329.0,17.44,13.68,47.59359,-54.27349
2024-01-06 14:24:00+00:00,329.0,12.9,321.0,16.73,13.68,47.59359,-54.27349
2024-01-06 14:34:00+00:00,327.0,15.9,330.0,18.23,13.68,47.59359,-54.27349
2024-01-06 14:44:00+00:00,328.0,15.12,325.0,18.0,13.68,47.59359,-54.27349
2024-01-06 14:54:00+00:00,327.0,16.43,328.0,18.83,13.68,47.59359,-54.27349
2024-01-06 15:04:00+00:00,311.0,17.78,307.0,22.23,13.68,47.59359,-54.27349
2024-01-06 15:14:00+00:00,324.0,15.01,326.0,16.57,14.56,47.59359,-54.27349
2024-01-06 15:24:00+00:00,325.0,17.6,315.0,23.55,14.56,47.59359,-54.27349
2024-01-06 15:34:00+00:00,325.0,14.31,328.0,16.76,14.56,47.59359,-54.27349
2024-01-06 15:44:00+00:00,323.0,13.88,333.0,19.9,14.56,47.59359,-54.27349
2024-01-06 15:54:00+00:00,323.0,15.42,307.0,18.83,14.56,47.59359,-54.27349
2024-01-06 16:04:00+00:00,322.0,17.01,314.0,22.6,14.56,47.59359,-54.27349
2024-01-06 16:14:00+00:00,318.0,11.59,317.0,14.66,13.68,47.59359,-54.27349
2024-01-06 16:24:00+00:00,317.0,12.7,305.0,16.58,13.68,47.59359,-54.27349
2024-01-06 16:34:00+00:00,321.0,15.89,309.0,19.75,13.68,47.59359,-54.27349
2024-01-06 16:44:00+00:00,313.0,10.87,323.0,13.34,13.68,47.59359,-54.27349
2024-01-06 16:54:00+00:00,311.0,11.91,302.0,18.18,13.68,47.59359,-54.27349
2024-01-06 17:04:00+00:00,322.0,13.88,306.0,16.26,13.68,47.59359,-54.27349
2024-01-06 17:14:00+00:00,320.0,13.57,309.0,17.26,13.68,47.59359,-54.27349
2024-01-06 17:24:00+00:00,319.0,20.11,313.0,25.32,13.68,47.59359,-54.27349
2024-01-06 17:34:00+00:00,324.0,17.07,308.0,22.02,13.68,47.59359,-54.27349
2024-01-06 17:44:00+00:00,307.0,16.45,311.0,22.65,13.68,47.59359,-54.27349
2024-01-06 17:54:00+00:00,321.0,13.23,325.0,16.5,13.68,47.59359,-54.27349
2024-01-06 18:04:00+00:00,325.0,15.69,324.0,18.73,13.68,47.59359,-54.27349
2024-01-06 18:14:00+00:00,325.0,15.5,327.0,19.16,14.48,47.59359,-54.27349
2024-01-06 18:24:00+00:00,317.0,13.8,310.0,18.77,14.48,47.59359,-54.27349
2024-01-06 18:34:00+00:00,322.0,16.43,318.0,22.69,14.48,47.59359,-54.27349
2024-01-06 18:44:00+00:00,329.0,16.42,330.0,20.5,14.48,47.59359,-54.27349
2024-01-06 18:54:00+00:00,321.0,13.63,327.0,15.98,14.48,47.59359,-54.27349
2024-01-06 19:04:00+00:00,317.0,12.74,304.0,20.93,14.48,47.59359,-54.27349
2024-01-06 19:14:00+00:00,319.0,11.43,323.0,14.33,14.0,47.59359,-54.27349
2024-01-06 19:24:00+00:00,323.0,14.03,327.0,16.43,14.0,47.59359,-54.27349
2024-01-06 19:34:00+00:00,320.0,11.62,319.0,15.51,14.0,47.59359,-54.27349
2024-01-06 19:44:00+00:00,310.0,13.34,307.0,21.34,14.0,47.59359,-54.27349
2024-01-06 19:54:00+00:00,321.0,13.11,327.0,16.65,14.0,47.59359,-54.27349
2024-01-06 20:04:00+00:00,322.0,13.98,330.0,17.58,14.0,47.59359,-54.27349
2024-01-06 20:14:00+00:00,301.0,9.1,297.0,11.39,12.73,47.59359,-54.27349
2024-01-06 20:24:00+00:00,311.0,9.96,312.0,13.33,12.73,47.59359,-54.27349
2024-01-06 20:34:00+00:00,314.0,13.66,306.0,18.74,12.73,47.59359,-54.27349
2024-01-06 20:44:00+00:00,307.0,11.99,308.0,15.09,12.73,47.59359,-54.27349
2024-01-06 20:54:00+00:00,317.0,14.15,320.0,19.81,12.73,47.59359,-54.27349
2024-01-06 21:04:00+00:00,316.0,17.24,326.0,21.6,12.73,47.59359,-54.27349
2024-01-06 21:14:00+00:00,316.0,15.46,308.0,21.01,12.41,47.59359,-54.27349
2024-01-06 21:24:00+00:00,308.0,16.66,307.0,21.63,12.41,47.59359,-54.27349
2024-01-06 21:34:00+00:00,318.0,14.56,308.0,22.18,12.41,47.59359,-54.27349
2024-01-06 21:44:00+00:00,307.0,12.19,309.0,15.94,12.41,47.59359,-54.27349
2024-01-06 21:54:00+00:00,306.0,10.75,306.0,13.14,12.41,47.59359,-54.27349
2024-01-06 22:04:00+00:00,311.0,11.31,311.0,13.76,12.41,47.59359,-54.27349
2024-01-06 22:14:00+00:00,308.0,10.29,322.0,11.93,12.33,47.59359,-54.27349
2024-01-06 22:24:00+00:00,309.0,11.54,319.0,13.69,12.33,47.59359,-54.27349
2024-01-06 22:34:00+00:00,313.0,13.51,322.0,17.36,12.33,47.59359,-54.27349
2024-01-06 22:44:00+00:00,320.0,13.79,329.0,17.06,12.33,47.59359,-54.27349
2024-01-06 22:54:00+00:00,298.0,14.88,303.0,19.84,12.33,47.59359,-54.27349
2024-01-06 23:04:00+00:00,312.0,11.77,317.0,15.2,12.33,47.59359,-54.27349
2024-01-06 23:14:00+00:00,311.0,10.5,319.0,13.6,12.25,47.59359,-54.27349
2024-01-06 23:24:00+00:00,313.0,11.36,307.0,14.29,12.25,47.59359,-54.27349
2024-01-06 23:34:00+00:00,312.0,12.77,321.0,19.04,12.25,47.59359,-54.27349
2024-01-06 23:44:00+00:00,317.0,13.34,322.0,17.64,12.25,47.59359,-54.27349
2024-01-06 23:54:00+00:00,317.0,9.48,313.0,12.93,12.25,47.59359,-54.27349
